GFSNE_250_spd_057.txt.gz
Wind_Speed
12 14 17 17 18 21 21 24 25 29 28 29 29 29 30 31 31 27 27 25 21 18 17 18 21 22 20 16 15 17 20 21 24 28 32 36 39 41
10 9 14 16 17 20 18 20 21 23 25 28 27 27 27 27 26 26 25 23 23 24 22 18 15 19 19 20 16 21 27 31 34 35 38 40 41 44
9 6 10 12 15 17 18 17 18 21 22 24 24 25 24 22 21 19 19 20 17 20 18 15 17 17 16 19 25 28 31 34 37 38 40 41 42 46
10 9 7 8 11 14 16 17 17 17 19 21 22 22 22 22 21 21 20 19 18 20 24 25 24 24 25 28 30 31 34 35 36 38 41 42 43 47
12 12 13 12 11 12 13 14 16 17 18 18 18 20 21 22 23 23 22 22 22 23 24 23 26 28 30 32 33 34 35 37 39 39 41 43 47 50
15 16 17 17 16 15 14 15 15 16 17 18 18 20 21 21 21 22 23 26 27 27 28 32 31 32 30 30 34 39 39 41 42 40 41 45 46 47
18 19 20 21 22 21 21 22 22 21 20 18 18 20 21 21 22 24 24 24 24 28 29 29 35 35 36 32 33 41 41 41 42 46 41 43 44 47
21 22 22 22 25 25 26 26 25 25 25 23 22 21 21 22 24 26 28 29 30 30 33 33 35 35 34 33 33 41 43 46 45 43 43 47 49 51
24 24 26 27 27 28 29 29 29 29 29 29 27 28 27 26 26 27 29 31 31 30 36 35 37 37 34 34 36 41 47 42 40 40 42 47 51 52
26 27 28 29 31 31 31 32 32 32 32 33 32 32 31 29 28 29 31 32 34 34 34 37 38 38 35 36 39 43 41 37 38 40 42 46 50 51
31 30 30 31 31 33 33 33 34 34 34 35 35 34 32 31 31 31 33 34 36 37 36 37 38 39 35 40 42 43 37 37 40 42 44 45 48 51
31 29 28 28 29 32 33 34 34 35 36 35 34 33 32 32 33 33 35 37 37 37 36 36 36 33 38 42 42 42 37 38 42 43 44 47 48 49
31 31 30 30 31 32 33 33 32 31 30 30 28 29 29 30 29 29 31 32 34 36 35 37 35 33 38 40 40 36 36 39 40 41 44 46 47 42
33 34 34 34 35 34 34 33 34 33 29 27 28 31 34 35 37 39 40 39 38 40 38 37 33 35 38 41 39 35 35 40 40 40 42 45 46 45
34 35 35 34 35 35 36 36 35 34 35 35 36 37 38 40 43 44 45 43 39 34 36 35 35 38 42 40 32 34 40 41 43 42 44 45 46 47
36 34 33 34 34 34 34 32 31 33 34 35 38 40 40 40 39 41 42 40 39 39 37 37 39 45 40 30 31 35 39 43 43 45 46 46 48 49
36 34 35 36 33 33 34 31 28 27 28 30 35 36 35 33 36 36 36 37 39 40 42 43 44 41 35 33 36 39 44 43 46 48 50 51 51 53
33 33 34 33 33 36 35 28 29 28 27 29 31 29 26 29 30 32 33 35 37 39 39 37 37 39 40 41 41 45 48 47 48 50 51 55 54 56
36 35 34 34 35 36 37 30 29 29 29 32 34 25 27 31 32 32 35 36 40 39 39 38 37 37 39 42 48 50 51 52 53 53 55 57 58 60
41 38 39 39 39 38 37 36 37 39 40 38 38 31 36 42 41 40 40 43 39 43 44 42 42 41 41 42 50 56 56 56 58 57 59 61 62 64
38 34 28 28 35 34 32 44 50 53 52 50 44 44 39 55 57 56 52 45 45 47 52 51 50 48 48 49 51 55 60 62 65 62 62 64 65 67
42 39 26 24 33 29 32 72 68 53 55 53 52 54 57 63 65 62 53 48 54 54 57 57 58 55 55 56 57 58 62 65 68 71 69 67 67 70
48 51 50 40 46 36 44 57 69 67 67 56 59 64 65 73 72 70 66 60 64 70 68 65 66 65 64 62 63 65 67 68 69 70 72 73 77 77

GFSNE_250_spd_060.txt.gz
Wind_Speed
9 13 16 18 20 18 19 21 22 24 26 28 29 30 31 31 29 27 25 24 25 25 21 24 18 14 14 17 27 32 35 37 39 40 40 40 39 43
9 8 11 14 17 18 19 19 20 21 22 23 24 25 25 25 26 26 25 23 20 19 21 20 22 23 23 24 30 33 35 36 37 40 41 40 42 45
10 8 9 11 12 14 16 17 19 20 21 21 21 21 21 21 20 18 18 18 17 16 16 17 20 24 25 25 22 27 31 34 36 39 39 42 42 41
11 10 10 11 13 13 14 16 16 17 18 19 20 21 21 19 18 18 20 21 21 21 21 22 22 22 22 27 25 28 30 34 37 39 41 39 40 43
12 13 13 12 13 15 16 17 18 20 21 21 19 20 21 21 20 21 21 22 23 24 25 26 28 31 33 33 34 33 37 40 40 42 39 37 39 41
16 15 15 15 15 16 18 21 22 23 23 21 19 18 18 19 20 22 24 23 25 26 26 28 31 32 34 33 31 30 34 38 42 35 34 35 37 38
19 19 18 18 18 17 18 20 20 21 22 21 23 23 24 22 22 25 26 27 26 29 28 29 31 31 34 33 31 30 36 39 36 34 36 37 38 42
22 23 22 22 22 21 22 22 21 23 23 22 24 25 26 25 26 28 28 30 32 32 34 30 34 33 35 35 32 32 38 39 35 34 36 38 40 41
25 25 25 24 25 26 26 26 25 25 25 26 26 26 26 26 26 27 28 31 34 34 35 37 37 35 34 35 30 34 38 39 32 31 37 39 39 41
26 27 27 28 30 30 27 25 25 27 27 28 28 27 27 26 28 29 30 31 31 31 33 35 34 32 32 33 32 36 40 40 32 33 39 39 41 43
26 27 27 27 28 26 24 23 23 22 24 26 25 25 25 25 27 27 27 27 29 32 33 36 35 34 33 32 32 35 41 36 30 34 39 40 43 45
25 28 27 25 25 25 25 25 25 21 24 23 25 24 23 25 24 26 28 32 34 33 34 36 36 33 34 33 35 39 42 32 31 35 39 42 44 47
25 27 27 27 27 28 28 27 25 25 25 23 24 22 25 26 28 30 32 35 36 37 36 34 34 33 33 35 36 40 33 30 33 36 37 39 41 45
30 28 29 28 29 28 30 29 26 26 25 24 24 24 25 28 28 29 31 29 30 34 34 33 34 34 34 32 37 32 26 28 32 38 41 42 44 45
28 28 30 29 30 30 30 28 27 25 25 23 22 21 22 21 21 20 19 20 24 25 28 31 31 32 35 34 31 27 27 29 31 35 40 43 45 49
31 27 29 30 30 33 31 32 31 25 23 21 20 21 18 17 15 18 16 19 22 25 26 29 31 32 35 33 32 32 34 35 38 41 42 43 44 46
35 33 32 30 31 31 32 34 33 27 23 24 25 20 18 20 18 18 24 24 28 27 30 29 31 32 32 33 35 36 36 39 41 42 45 46 46 47
37 37 36 33 33 34 34 34 32 34 30 27 21 22 22 23 25 28 30 32 40 38 36 31 34 35 38 39 39 41 42 43 43 47 47 48 49 51
41 40 40 36 37 37 36 37 35 35 36 32 28 24 25 29 37 37 37 37 45 50 47 44 41 43 46 47 43 44 47 46 51 51 51 52 53 54
45 46 43 41 39 38 38 38 35 34 35 39 44 39 35 41 41 41 44 47 51 56 53 55 54 48 53 53 50 51 51 52 54 55 54 56 58 58
48 47 48 45 39 34 34 36 32 38 40 32 36 37 42 44 42 50 50 52 58 58 61 63 61 59 59 58 57 59 62 59 57 59 59 59 60 61
55 52 47 46 43 42 40 36 41 39 41 48 44 41 43 48 51 60 64 66 63 62 64 69 68 71 71 65 64 60 66 67 67 65 65 69 70 70
54 56 53 50 45 44 45 48 49 50 51 54 59 61 63 71 67 66 70 72 66 70 71 75 78 80 73 67 68 69 75 75 79 79 77 75 76 79

GFSNE_250_spd_063.txt.gz
Wind_Speed
10 13 14 16 18 21 22 23 24 24 24 25 25 26 26 25 24 23 24 23 23 22 19 18 18 18 22 25 27 25 31 33 37 41 42 40 37 37
9 8 9 12 15 17 18 19 20 20 21 21 22 22 22 22 22 23 22 22 21 19 18 20 24 27 27 26 27 28 28 34 36 43 41 36 35 35
7 9 8 9 10 12 15 16 17 18 20 20 18 18 18 18 18 18 18 17 16 18 19 20 21 23 24 25 26 27 30 37 40 44 36 35 36 39
6 8 9 10 11 11 13 15 17 19 21 19 17 17 18 17 19 19 21 19 18 21 22 23 23 27 29 30 31 31 31 38 40 43 31 34 35 37
10 9 10 11 12 13 14 16 18 18 19 19 19 19 20 21 21 21 22 24 25 24 27 27 27 30 31 31 33 31 29 35 39 40 30 34 34 36
11 12 13 14 14 15 16 16 17 18 19 18 19 20 21 22 23 24 24 23 26 27 29 31 31 32 33 31 31 30 28 35 39 36 28 33 35 38
12 14 15 16 17 17 18 19 20 21 21 20 20 21 21 21 22 25 25 26 26 29 27 27 26 26 30 30 30 31 30 34 38 31 28 33 36 39
16 16 16 17 18 19 20 23 22 22 21 22 22 22 22 22 24 26 26 27 24 24 25 27 27 25 27 28 29 30 29 32 33 27 29 33 37 39
18 17 17 19 20 21 23 24 22 22 22 22 21 22 22 23 24 25 26 23 19 25 29 31 30 31 30 27 28 28 29 32 29 25 29 33 36 37
18 19 19 20 21 22 23 21 20 18 18 22 20 19 20 20 24 23 20 20 25 26 30 30 31 27 27 26 28 29 30 31 25 27 29 32 35 37
17 17 17 19 21 23 22 21 20 19 22 24 22 19 20 18 20 18 20 23 25 24 24 25 27 25 25 25 27 28 32 28 26 31 34 36 37 37
14 15 17 16 17 20 22 22 23 20 25 25 23 18 20 20 19 19 20 17 18 19 20 21 22 23 23 23 27 27 26 23 26 32 35 36 40 42
16 16 16 17 17 19 23 23 22 23 27 25 24 21 20 21 21 16 13 11 15 16 20 21 21 19 21 23 23 23 23 24 25 30 33 37 40 43
16 15 17 18 18 19 22 23 20 22 25 26 26 23 19 19 17 11 9 7 16 19 17 20 21 25 23 21 24 29 30 30 29 31 34 38 40 42
19 16 17 19 20 23 22 23 22 23 24 26 27 24 21 20 17 15 15 13 14 16 22 26 30 31 27 26 27 27 27 33 36 35 37 40 43 46
24 20 18 22 23 25 25 23 22 24 27 29 27 25 26 25 22 18 20 21 17 16 18 27 31 35 33 25 26 31 30 30 32 36 36 37 42 45
27 27 27 27 26 27 30 29 27 28 28 29 28 28 28 30 27 22 22 25 29 34 37 32 34 37 41 38 32 38 38 38 36 38 40 44 42 42
29 32 33 33 33 33 33 34 32 31 30 30 34 34 31 35 31 33 20 21 23 27 32 37 39 40 42 42 41 40 49 47 44 44 45 46 48 50
32 35 36 37 38 38 37 37 38 35 34 34 37 36 35 34 40 38 36 50 41 35 36 38 42 45 50 52 47 47 54 55 53 50 47 49 54 58
37 38 40 41 40 41 40 41 40 38 37 35 34 35 37 41 44 49 51 53 41 43 48 50 55 52 55 56 53 55 55 62 62 59 56 53 61 62
44 44 46 45 46 44 44 44 44 42 41 40 40 38 39 38 42 45 45 49 49 57 62 63 65 60 59 62 60 60 58 65 67 71 67 66 67 70
50 49 49 51 49 44 43 45 44 45 44 44 45 46 49 49 49 50 53 54 58 60 66 71 69 67 66 63 61 62 66 69 72 71 72 75 72 71
55 51 56 55 51 49 49 50 47 45 47 48 48 49 54 57 54 54 57 59 65 65 68 71 76 74 71 67 68 76 74 74 77 80 80 81 76 81

GFSNE_250_spd_069.txt.gz
Wind_Speed
9 12 12 13 15 16 17 19 18 18 19 19 18 17 17 17 17 16 16 17 18 17 17 19 19 20 22 25 26 30 28 30 31 25 27 28 30 32
6 6 7 8 9 10 12 13 13 11 10 10 10 12 13 13 12 12 13 14 15 16 16 18 20 20 21 23 23 27 27 30 30 25 27 28 30 33
6 6 6 8 8 8 9 10 10 9 8 8 7 9 9 9 9 10 12 13 14 16 18 22 22 24 24 24 25 26 26 28 26 26 27 27 32 34
6 6 7 8 9 10 10 11 11 11 12 11 9 9 10 11 12 12 14 15 15 16 18 19 21 23 25 23 23 23 26 27 28 28 26 32 34 35
7 4 5 7 8 8 8 9 10 11 12 11 10 10 10 12 14 15 14 12 11 15 18 21 22 20 23 21 22 25 25 25 24 25 30 34 36 38
8 6 4 6 7 7 7 7 10 9 8 8 10 11 10 12 12 12 11 10 11 15 16 19 19 23 21 20 21 21 22 23 24 26 28 30 33 35
10 9 9 7 7 6 7 8 9 7 7 8 9 10 11 11 13 10 8 10 11 12 16 17 19 19 19 23 24 22 24 23 24 24 25 25 30 35
11 12 13 11 10 10 10 8 9 10 9 8 10 12 12 10 7 8 9 10 11 10 13 13 16 18 16 17 16 18 28 29 25 25 26 27 29 32
13 14 16 15 13 12 13 11 9 8 9 10 9 10 10 9 5 6 6 7 6 5 7 7 11 13 13 19 23 18 17 26 27 27 26 28 31 33
16 15 16 15 13 14 14 13 11 7 9 9 6 7 8 5 2 3 9 8 5 5 5 6 5 7 13 14 19 22 25 28 30 34 26 25 30 34
18 15 14 13 11 13 12 11 10 5 10 8 5 5 5 4 4 8 14 13 7 7 7 4 4 5 6 9 17 18 24 26 28 30 32 33 33 33
16 15 11 9 9 12 10 8 4 6 10 7 6 7 7 6 8 12 19 11 10 9 11 5 4 2 7 11 18 21 25 27 25 23 32 31 34 40
16 16 14 12 12 13 11 5 3 9 13 12 13 10 11 11 12 12 18 20 18 17 17 13 17 15 15 21 22 25 26 31 32 30 29 32 31 36
19 17 16 14 13 14 16 9 6 8 10 12 13 12 11 13 13 14 16 21 25 27 27 20 21 21 27 27 23 27 31 34 39 41 34 33 36 38
21 18 15 16 18 21 17 11 9 10 10 12 12 11 12 14 15 15 16 17 21 22 28 35 33 30 31 34 26 30 34 38 39 42 42 39 41 40
23 20 21 25 27 23 18 15 13 14 15 16 14 13 15 18 20 20 21 23 26 23 26 27 28 32 31 35 38 40 40 42 40 43 42 44 43 47
27 27 29 28 26 26 25 22 20 20 20 17 17 17 18 19 22 23 25 26 31 29 25 25 25 27 31 35 39 37 36 40 42 42 42 41 41 44
32 34 34 30 30 28 28 27 27 25 24 22 23 21 20 22 24 25 25 27 26 26 26 29 33 32 30 32 38 39 35 36 38 37 39 42 43 45
40 40 39 36 33 32 32 31 30 29 27 27 28 28 24 23 24 26 28 27 28 28 28 25 27 30 29 29 30 35 40 36 37 41 45 49 47 50
48 47 47 44 43 41 40 37 35 33 32 30 31 30 25 23 24 26 26 27 34 34 34 34 35 35 35 35 37 41 43 45 51 53 55 56 56 55
53 54 52 47 46 47 47 44 43 36 32 35 30 31 32 30 34 35 36 38 36 38 40 40 41 41 43 45 49 48 50 55 56 59 63 65 64 62
58 58 58 54 50 50 52 51 48 45 44 41 37 35 36 38 39 41 45 41 43 48 53 47 42 45 48 51 53 56 61 63 66 68 71 72 72 71
59 61 62 58 56 55 55 57 58 52 48 44 41 40 41 42 40 40 42 48 48 53 56 54 53 56 59 59 64 67 68 71 73 77 78 78 75 77

GFSNE_250_spd_072.txt.gz
Wind_Speed
8 10 11 12 14 15 16 15 12 11 10 11 10 10 9 9 10 11 12 15 16 16 15 17 18 19 20 22 21 22 24 25 26 27 31 34 35 36
4 6 7 7 8 10 10 11 9 8 7 7 7 9 10 11 12 13 13 13 14 15 16 18 20 22 22 21 21 22 24 25 25 27 29 31 33 35
4 3 3 4 6 7 8 9 8 8 9 8 8 9 9 10 12 13 12 11 12 13 16 19 20 21 21 23 22 22 22 23 24 26 29 30 32 34
4 3 1 3 4 4 4 5 6 7 7 8 9 10 11 12 12 12 11 11 12 15 15 17 18 19 21 22 22 21 22 23 24 25 27 29 34 34
5 3 4 2 3 4 3 3 4 5 5 5 7 8 10 10 10 9 8 10 12 14 17 16 19 19 18 25 26 21 21 24 25 24 25 27 29 35
7 5 4 5 6 5 4 5 6 6 4 4 6 7 7 8 6 4 7 8 13 19 18 18 17 19 20 23 24 24 25 27 29 28 26 28 32 33
8 9 6 5 6 6 6 7 6 6 7 6 5 6 5 5 5 5 6 9 15 20 18 21 20 16 12 20 25 25 22 29 26 29 27 28 28 30
13 10 9 10 9 8 7 5 7 8 7 6 7 8 6 1 3 3 5 11 14 14 15 14 17 14 15 19 24 22 21 25 28 29 31 32 27 25
18 16 13 13 11 10 10 8 7 7 8 8 6 7 5 0 7 7 9 13 11 9 8 8 9 9 9 17 24 22 23 22 23 30 30 33 33 31
23 20 19 17 12 12 13 12 11 8 9 8 7 8 6 3 9 12 14 16 13 12 11 10 6 4 10 18 21 25 24 29 28 26 28 29 39 32
26 24 21 19 15 14 13 12 12 9 14 11 9 7 6 5 12 18 18 19 16 16 17 12 6 7 11 16 21 23 26 25 26 32 33 29 31 38
26 26 24 20 16 15 16 14 12 12 15 13 11 9 7 8 11 18 20 21 21 17 20 19 13 14 15 17 20 20 22 24 30 33 34 33 29 32
24 25 23 21 20 19 18 16 15 16 15 9 10 10 10 8 9 14 16 23 27 28 25 22 22 24 26 25 23 22 26 29 30 32 36 34 34 32
26 25 25 24 23 22 22 19 17 18 11 6 6 6 10 12 13 13 15 19 28 30 29 31 32 33 33 34 34 30 28 30 30 32 32 30 28 29
30 30 28 27 26 27 28 19 17 17 14 15 14 10 12 14 15 15 16 17 20 19 21 22 26 27 24 31 35 31 39 33 28 30 34 29 25 29
32 30 29 30 33 34 32 20 18 20 20 21 20 18 17 17 18 15 18 20 23 25 24 26 26 24 25 27 28 25 30 33 27 30 27 24 28 34
31 30 33 36 38 37 33 26 24 23 23 23 23 24 23 22 22 20 22 23 21 21 23 23 26 26 28 27 26 27 29 32 27 30 27 31 35 40
35 35 37 38 39 37 33 31 28 29 28 26 27 26 25 24 24 25 25 25 22 22 23 25 27 26 25 26 26 28 30 27 27 31 33 37 41 43
43 43 40 40 39 36 36 35 34 35 33 34 34 33 31 29 26 24 25 24 22 22 24 28 32 33 30 35 36 38 37 36 35 36 41 46 48 49
50 48 47 44 41 39 37 35 36 38 39 38 38 38 37 38 34 27 26 29 34 38 39 40 40 40 38 38 39 43 44 43 46 49 48 53 56 59
55 54 51 50 51 49 47 45 44 42 43 44 45 43 42 43 41 34 33 38 40 42 41 41 42 39 35 36 43 41 48 49 49 49 52 58 63 65
57 57 57 58 58 57 55 53 52 51 48 48 47 46 45 45 48 46 44 42 40 40 43 38 40 41 39 38 40 39 43 49 50 53 55 60 61 60
64 61 59 58 57 56 55 54 56 56 59 57 55 49 46 49 51 51 49 48 50 47 42 43 41 41 45 46 47 48 51 53 54 58 60 64 63 64

GFSNE_250_spd_075.txt.gz
Wind_Speed
9 9 9 11 12 13 13 11 11 10 9 9 9 10 11 12 14 14 14 13 14 16 19 21 25 26 28 27 24 22 22 26 24 26 27 29 32 35
5 5 5 6 8 9 10 9 8 8 7 6 8 9 11 13 13 13 11 10 12 15 20 25 24 26 27 25 22 23 24 25 26 29 34 37 33 34
5 3 1 3 5 6 6 6 6 7 7 7 8 9 10 11 11 9 9 9 12 15 18 21 19 22 21 21 21 22 28 30 29 35 37 35 39 45
6 6 3 4 4 3 3 3 5 6 6 7 9 10 11 10 9 8 8 10 14 17 17 17 18 26 22 22 22 22 30 30 34 33 37 40 40 42
7 7 4 3 4 6 4 4 5 7 6 6 9 9 9 10 9 6 8 12 13 12 16 12 18 23 23 24 26 24 24 24 30 30 34 37 39 38
6 8 7 6 4 4 4 5 7 7 7 7 6 6 7 7 9 6 7 11 9 13 15 12 17 19 24 24 25 24 21 25 26 26 30 32 34 34
9 10 10 9 7 6 6 6 5 6 7 6 5 4 3 3 4 2 4 9 14 15 14 10 10 15 21 17 21 23 24 28 29 32 33 31 33 37
14 14 13 14 12 11 9 8 8 8 9 9 7 6 4 5 6 5 4 11 11 17 12 6 5 13 18 17 21 21 25 24 23 24 26 27 26 30
20 18 17 17 15 13 13 12 12 11 11 12 11 9 6 7 11 10 13 18 16 13 10 5 1 7 10 13 14 18 20 20 22 27 25 29 29 29
24 23 22 21 19 15 16 16 16 14 14 15 13 11 9 9 14 20 17 21 20 17 14 12 9 7 12 15 14 15 18 19 20 22 27 29 29 27
31 28 25 23 21 18 18 16 17 16 18 17 15 13 12 9 14 20 21 19 21 19 17 17 19 17 16 18 20 23 19 25 23 26 26 22 24 23
32 28 26 25 21 19 20 19 20 16 21 17 15 14 14 12 13 15 21 23 23 22 22 22 22 24 25 25 29 26 28 23 23 22 24 17 21 19
33 32 29 26 22 19 21 24 21 19 21 15 13 14 15 15 14 16 21 26 30 29 27 28 27 29 29 29 32 33 33 31 30 25 20 21 21 18
37 36 33 28 24 23 25 29 23 22 23 12 12 14 18 19 19 19 17 22 25 27 29 31 29 29 32 29 27 29 29 28 25 24 19 23 24 24
40 36 31 29 28 29 31 34 28 26 24 18 17 17 18 19 19 18 18 20 19 23 21 19 22 25 26 27 29 24 23 26 27 25 25 25 25 27
41 38 34 32 33 37 40 39 31 26 27 26 23 20 20 22 22 20 20 20 22 24 23 21 22 23 25 25 28 27 24 25 28 27 24 26 29 29
43 41 38 37 40 41 42 42 33 27 29 28 27 27 26 24 25 24 24 23 24 24 20 17 19 17 20 23 23 23 25 30 26 29 33 31 34 36
44 42 39 38 44 47 45 44 38 29 30 30 31 31 30 28 27 28 28 28 28 27 23 23 22 27 26 27 24 30 30 31 33 35 40 41 41 41
50 45 44 46 44 46 45 42 41 38 33 34 34 34 33 30 28 29 31 31 31 32 32 30 30 31 35 35 29 28 27 29 30 32 30 31 35 40
55 50 51 50 48 44 43 40 39 39 38 38 38 37 35 30 29 30 31 31 29 30 34 33 33 34 36 38 39 34 36 31 32 33 33 35 38 35
63 62 60 53 51 50 47 43 43 42 40 40 40 39 38 37 37 37 38 38 35 33 36 40 44 44 38 42 45 38 35 40 36 36 38 39 39 43
72 68 64 57 55 52 52 50 48 47 47 47 48 48 48 44 43 42 44 45 47 45 43 44 47 48 48 44 41 39 38 44 43 46 50 52 54 50
77 74 69 63 60 58 56 57 58 58 56 56 57 57 56 55 50 48 50 50 47 49 48 51 54 56 55 56 54 49 42 48 53 56 59 59 64 64